Tracking 27124 objects as of 31-Mar-2023
HD Live streaming from Space Station
objects crossing your sky now

SL-8 DEB

Track SL-8 DEB now!
10-day predictions


NORAD ID: 25085
Int'l Code: 1991-009CX
Perigee: 1,444.4 km
Apogee: 1,724.3 km
Inclination: 74.1 °
Period: 117.7 minutes
Semi major axis: 7955 km
RCS: 0.0159 m2 (small)
Launch date: February 12, 1991
Source: Commonwealth of Independent States (former USSR) (CIS)
Launch site: PLESETSK MISSILE AND SPACE COMPLEX (PKMTR)

Note: This is SATELLITE DEBRIS
Your satellite tracking list
Your tracking list is empty




NASA's NSSDC Master Catalog

Two Line Element Set (TLE):
1 25085U 91009CX  23084.43151931  .00000429  00000-0  39028-2 0  9992
2 25085  74.1075 256.3556 0175944  21.7160   6.6748 12.23534264266697
Source of the keplerian elements: AFSPC